This is the latest recevied weather packets stored in our database for station/object DO2MIB-1. If no packets are shown the sender has not sent any weather packets the latest 10 day(s).
| Time | Temp. | Humidity | Pressure | Rain* | Wind** | Luminosity | Snow |
|---|---|---|---|---|---|---|---|
| 1778380323 | 22.22° C | 28% | 0 hPa | - | 0 m/s | - | - |
| 1778380207 | 23.89° C | 28% | 0 hPa | - | 0 m/s | - | - |
| 1778379760 | 23.89° C | 25% | 0 hPa | - | 0 m/s | - | - |
| 1778379678 | 25° C | 26% | 0 hPa | - | 0 m/s | - | - |
| 1778379496 | 25° C | 26% | 0 hPa | - | 0 m/s | - | - |
| 1778379462 | 24.44° C | 26% | 0 hPa | - | 0 m/s | - | - |
| 1778379330 | 21.11° C | 24% | 0 hPa | - | 0 m/s | - | - |
| 1778378684 | 24.44° C | 26% | 0 hPa | - | 0 m/s | - | - |
| 1778378568 | 25° C | 24% | 0 hPa | - | 0 m/s | - | - |
| 1778378502 | 23.89° C | 25% | 0 hPa | - | 0 m/s | - | - |
| 1778378270 | 25° C | 26% | 0 hPa | - | 0 m/s | - | - |
| 1778378254 | 21.67° C | 26% | 0 hPa | - | 0 m/s | - | - |
| 1778378154 | 24.44° C | 25% | 0 hPa | - | 0 m/s | - | - |
| 1778378121 | 25° C | 26% | 0 hPa | - | 0 m/s | - | - |
| 1778377972 | 25° C | 25% | 0 hPa | - | 0 m/s | - | - |
| 1778377939 | 24.44° C | 25% | 0 hPa | - | 0 m/s | - | - |
| 1778377823 | 25° C | 25% | 0 hPa | - | 0 m/s | - | - |
| 1778377790 | 24.44° C | 26% | 0 hPa | - | 0 m/s | - | - |
| 1778377674 | 25° C | 25% | 0 hPa | - | 0 m/s | - | - |
| 1778377377 | 25° C | 25% | 0 hPa | - | 0 m/s | - | - |
| 1778377360 | 22.22° C | 26% | 0 hPa | - | 0 m/s | - | - |
| 1778377343 | 25° C | 26% | 0 hPa | - | 0 m/s | - | - |
| 1778377227 | 25° C | 26% | 0 hPa | - | 0 m/s | - | - |
| 1778377194 | 25° C | 26% | 0 hPa | - | 0 m/s | - | - |
| 1778377012 | 25° C | 27% | 0 hPa | - | 0 m/s | - | - |
* Rain since midnight (hover to see other rain measurements)
** Current wind speed in m/s (hover to see current wind gust speed)